Cut Bank, MT

7:38 AM MDT on October 21, 2019 (GMT -0600)
Cut Bank Municipal

Weather History for KCTB - August, 2019

Change the Weather History Date:

Thursday, August 8, 2019

  Actual Average Record
Temperature  
Mean Temperature 72 °F 66 °F  
Max Temperature 91 °F 81 °F 97 °F (1930)
Min Temperature 52 °F 50 °F 37 °F (1980)
Degree Days  
Heating Degree Days 0 2  
Month to date heating degree days 0 16  
Since 1 June heating degree days 315 335  
Since 1 July heating degree days 93 102  
Cooling Degree Days 6 3  
Month to date cooling degree days 42 24  
Year to date cooling degree days 95 113  
Since 1 June cooling degree days 95 111  
Growing Degree Days 22 (Base 50)    
Moisture  
Dew Point 45 °F    
Average Humidity 45    
Maximum Humidity 89    
Minimum Humidity 15    
Precipitation  
Precipitation 0.00 in 0.03 in 0.96 in (1974)
Month to date precipitation 0.01 0.29  
Year to date precipitation 7.42 7.76  
Snow  
Snow - - - ()
Snow Depth 0.00 in    
Sea Level Pressure  
Sea Level Pressure 29.84 in    
Wind  
Wind Speed 6 mph ()    
Max Wind Speed 16 mph    
Max Gust Speed 19 mph    
Visibility 9.5 miles    
Events      
T = Trace of Precipitation, MM = Missing Value Source: Averaged Metar Reports

Daily Weather History Graph

Daily Weather History Graph

Search for Another Location

Airport or City:

Astronomy

Aug. 08, 2019 Rise Set
Actual Time 6:12 AM MDT 8:56 PM MDT
Civil Twilight 5:37 AM MDT 9:32 PM MDT
Nautical Twilight 4:51 AM MDT 10:17 PM MDT
Astronomical Twilight 3:56 AM MDT 11:11 PM MDT
Moon 3:37 PM MDT (8/8) 12:40 AM MDT (8/8)
Length of Visible Light 15h 55m
Length of Day
14h 43m
First Quarter, 61% of the Moon is Illuminated
Aug 8
First Quarter
Aug 15
Full
Aug 23
Last Quarter
Aug 30
New
Sep 5
First Quarter

Hourly Weather History & Observations

Time (MDT) Temp. Dew Point Humidity Pressure Visibility Wind Dir Wind Speed Gust Speed Precip Events Conditions
12:56 AM 64.0 °F 51.1 °F 63% 29.88 in 10.0 mi ESE 8.1 mph - N/A   Clear
1:56 AM 62.1 °F 51.1 °F 67% 29.87 in 10.0 mi ESE 8.1 mph - N/A   Clear
2:56 AM 59.0 °F 51.1 °F 75% 29.87 in 10.0 mi ESE 3.5 mph - N/A   Clear
3:56 AM 57.9 °F 51.1 °F 78% 29.86 in 10.0 mi ENE 3.5 mph - N/A   Clear
4:56 AM 53.1 °F 48.9 °F 86% 29.87 in 10.0 mi NW 9.2 mph - N/A   Clear
5:56 AM 52.0 °F 48.0 °F 86% 29.90 in 10.0 mi North 8.1 mph - N/A   Clear
6:56 AM 53.1 °F 48.9 °F 86% 29.91 in 10.0 mi NNW 8.1 mph - N/A   Clear
7:56 AM 61.0 °F 52.0 °F 72% 29.91 in 10.0 mi North 8.1 mph - N/A   Clear
8:56 AM 66.0 °F 52.0 °F 60% 29.91 in 10.0 mi NNE 8.1 mph - N/A   Clear
9:56 AM 69.1 °F 52.0 °F 54% 29.91 in 10.0 mi North 3.5 mph - N/A   Clear
10:56 AM 73.9 °F 51.1 °F 45% 29.89 in 10.0 mi ENE 4.6 mph - N/A   Clear
11:56 AM 77.0 °F 50.0 °F 39% 29.88 in 10.0 mi Variable 3.5 mph - N/A   Clear
12:56 PM 81.0 °F 48.0 °F 31% 29.85 in 10.0 mi North - - N/A   Clear
1:56 PM 84.9 °F 43.0 °F 23% 29.83 in 10.0 mi SW 6.9 mph - N/A   Clear
2:56 PM 87.1 °F 39.0 °F 18% 29.81 in 10.0 mi Variable 5.8 mph - N/A   Clear
3:56 PM 89.1 °F 37.0 °F 16% 29.79 in 10.0 mi Calm Calm - N/A   Clear
4:56 PM 91.0 °F 37.9 °F 15% 29.78 in 9.0 mi Variable 4.6 mph - N/A   Scattered Clouds
5:56 PM 88.0 °F 36.0 °F 16% 29.78 in 9.0 mi SSE 6.9 mph - N/A   Partly Cloudy
6:56 PM 84.9 °F 37.9 °F 19% 29.78 in 9.0 mi South 12.7 mph - N/A   Partly Cloudy
7:56 PM 80.1 °F 37.0 °F 21% 29.78 in 9.0 mi SW 9.2 mph - N/A   Clear
8:56 PM 73.9 °F 36.0 °F 25% 29.79 in 9.0 mi WSW 8.1 mph - N/A   Clear
9:56 PM 73.9 °F 37.0 °F 26% 29.78 in 7.0 mi WSW 3.5 mph - N/A   Clear
10:56 PM 73.0 °F 37.9 °F 28% 29.78 in 7.0 mi Calm Calm - N/A   Clear
11:56 PM 66.9 °F 37.9 °F 34% 29.78 in 8.0 mi SSE 6.9 mph - N/A   Clear